Regional Weather Roundup
Issued by NWS

Home | Current Version | Previous Version | Text Only | Print | Product List | Glossary Off
Versions: 1 2 3 4 5 6 7 8 9 10 11 12 13 14 15 16 17 18 19 20 21 22 23 24 25 26 27 28 29 30 31 32 33 34 35 36 37 38 39 40 41 42 43 44 45 46 47 48 49 50

000
ASUS43 KIND 051909
RWRIN

WEATHER ROUNDUP FOR INDIANA
NATIONAL WEATHER SERVICE INDIANAPOLIS IN
300 PM EDT TUE MAY 05 2015

NOTE: "FAIR" INDICATES FEW OR NO CLOUDS BELOW 12,000 FEET WITH NO
SIGNIFICANT WEATHER AND/OR OBSTRUCTIONS TO VISIBILITY.

* - STATION DOES NOT REPORT WEATHER SUCH AS PRECIPITATION OR FOG.

+ - STATION NOT QUALITY CONTROLLED BY THE NATIONAL WEATHER SERVICE.
    USE DATA WITH CAUTION...ESPECIALLY DEWPOINT AND RELATIVE
    HUMIDITY OBSERVATIONS.

INZ001>003-010>013-019-020-052000-
NORTHWEST INDIANA

CITY           SKY/WX    TMP DP  RH WIND       PRES   REMARKS
GARY /AIRPORT/ FOG       52 N/A N/A N9        30.23  VSB 1/2
KNOX *+        CLOUDY    70  52  52 NE10      30.18F
LA PORTE +     CLOUDY    69  66  90 NE6       30.21S
MICHIGAN CITY+ CLOUDY    61  61 100 N5        30.22S FOG
MONTICELLO +   MOSUNNY   80  62  54 S13G18    30.17S
VALPARAISO     CLOUDY    69  64  84 NE6       30.20S

$$

LMZ046-743>745-052000-
SOUTHERN LAKE MICHIGAN

STATION/POSITION TIME  TEMP    WIND        PRES    WAVE
                       AIR SEA DIR/SP/G            HT
                 (UTC) (F)     (DEG/KT/KT) (MB)    (FT)
BURNS HARBOR     1900   49     350/  2/  3 1023.7S
MICHIGAN CITY    1900   53      30/  9/ 10   N/A
5NW MICH CITY    1900   50 49   50/  8/ 10   N/A     1

$$

INZ004-005-014>016-021>024-052000-
NORTH CENTRAL INDIANA

CITY           SKY/WX    TMP DP  RH WIND       PRES   REMARKS
ELKHART        LGT RAIN  59  59 100 NE9       30.24S
GOSHEN         LGT RAIN  70  62  76 E6        30.22R
LOGANSPORT +   SUNNY     79  59  50 SW10      30.19F
PERU/GRISSOM   SUNNY     79  62  56 SW10      30.18F
ROCHESTER +    MOSUNNY   79  63  57 S5        30.19F
SOUTH BEND     CLOUDY    66  60  81 VRB5      30.22F
WARSAW +       PTSUNNY   72  63  73 NE5       30.21S

$$

INZ006>009-017-018-025>027-052000-
NORTHEAST INDIANA

CITY           SKY/WX    TMP DP  RH WIND       PRES   REMARKS
ANGOLA *+      CLOUDY    57  46  67 E8        30.24F
AUBURN +       PTSUNNY   68  61  77 NE8       30.23F HAZE
FORT WAYNE     PTSUNNY   77  61  57 SW7       30.21F
HUNTINGTON +   PTSUNNY   77  61  56 SW9       30.20S

$$

INZ028-029-035-036-043>045-051>053-052000-
WEST CENTRAL INDIANA

CITY           SKY/WX    TMP DP  RH WIND       PRES   REMARKS
CRAWFORDSVL +  MOSUNNY   80  43  26 SW14      30.19S
GREENCASTLE +  MOSUNNY   79  46  31 SW8       30.20F
LAFAYETTE      MOSUNNY   81  54  39 SW12G21   30.16F
TERRE HAUTE    SUNNY     84  52  33 SW13      30.18F

$$

INZ030>032-037>040-046>048-054>057-064-065-052000-
CENTRAL INDIANA

CITY           SKY/WX    TMP DP  RH WIND       PRES   REMARKS
ANDERSON       MOSUNNY   81  46  30 S6        30.22
CP ATTERBURY + PTSUNNY   81  50  34 SW13G18   30.21F
FISHERS *+     MOSUNNY   79  59  50 W9G18     30.20F
FRANKFORT +    SUNNY     82  55  40 S17       30.21F
GREENWOOD *+   PTSUNNY   82  50  32 W13       30.21F
INDIANAPOLIS   MOSUNNY   82  53  36 SW17      30.19F
-EAGLE CREEK   PTSUNNY   81  52  36 SW13G20   30.19F
KOKOMO *+      MOSUNNY   81  61  50 SW15      30.19F
MARION +       MOSUNNY   79  56  45 W14G21    30.21S
MT COMFORT *+  SUNNY     84  28  13 SW10G17   30.21F
SHELBYVILLE    MOSUNNY   84  56  38 W12       30.20F
ZIONSVILLE +   SUNNY     81  50  34 W10G17    30.21S

$$

INZ033-034-041-042-049-050-058-059-052000-
EAST CENTRAL INDIANA

CITY           SKY/WX    TMP DP  RH WIND       PRES   REMARKS
MUNCIE         MOSUNNY   79  57  46 W7        30.21F

$$

INZ060-061-067>069-081>083-085>088-052000-
SOUTHWEST INDIANA

CITY           SKY/WX    TMP DP  RH WIND       PRES   REMARKS
EVANSVILLE     MOSUNNY   83  54  36 S8        30.21F
HUNTINGBURG *+ MOSUNNY   82  55  39 S9        30.22F
WASHINGTON +   MOSUNNY   82  51  34 S13       30.20F

$$

INZ062-063-066-070>080-084-089>092-052000-
SOUTH CENTRAL AND SOUTHEAST INDIANA

CITY           SKY/WX    TMP DP  RH WIND       PRES   REMARKS
BLOOMINGTON    PTSUNNY   82  51  34 SW14      30.21F
MADISON *+     MOSUNNY   81  46  30 S6        30.25F
NORTH VERNON + MOSUNNY   81  54  39 SW7G17    30.23F
SEYMOUR +      PTSUNNY   82  55  39 SW8G16    30.21F

$$



USA.gov is the U.S. government's official web portal to all federal, state and local government web resources and services.